Regional Weather Roundup
Issued by NWS Grand Forks, ND

Home | Current Version | Previous Version | Text Only | Print | Product List | Glossary Off
Versions: 1 2 3 4 5 6 7 8 9 10 11 12 13 14 15 16 17 18 19 20 21 22 23 24 25 26 27 28 29 30 31 32 33 34 35 36 37 38 39 40 41 42 43 44 45 46 47 48 49 50

000
ASUS43 KFGF 240431
RWRFGF
PRAIRIE TO PINES  WEATHER ROUNDUP
NATIONAL WEATHER SERVICE EASTERN NORTH DAKOTA/GRAND FORKS ND
1000 PM CST THU FEB 23 2017

 **SATELLITE DATA USED TO AUGMENT SKY COVER AT AUTOMATED STATIONS**
 *****  WEATHER ACROSS EASTERN NORTH DAKOTA  *****

CITY           SKY/WX    TMP DP  RH WIND       PRES   REMARKS
GRAND FORKS    FAIR      20  12  71 N10       30.12S WCI   9
GRAND FRKS AFB FAIR      17  15  89 N9        30.13R WCI   6
DEVILS LAKE    FAIR      16  13  88 N10       30.12S WCI   4
FARGO          CLOUDY    24  16  71 N17G24    30.08R WCI  11
WAHPETON ARPT  MOCLDY    25  16  68 N18G26    30.06R WCI  11
$$

 ***** WEATHER ACROSS CENTRAL AND WESTERN NORTH DAKOTA  *****

CITY           SKY/WX    TMP DP  RH WIND       PRES   REMARKS
BISMARCK       FAIR      20  14  77 N10       30.11S WCI   9
MINOT          FAIR      19  14  81 SW6       30.13S WCI  11
JAMESTOWN      FAIR      22  17  81 N10       30.07R WCI  11
MINOT AFB      CLOUDY    14  11  88 W6        30.13S WCI   5
GARRISON         N/A     11   7  84 N7        30.12S WCI   0
WILLISTON      FAIR      12   9  87 N3        30.16R
DICKINSON      FAIR      14   9  80 NE8       30.06R WCI   3
HETTINGER      CLOUDY    20  15  81 N12       30.07R WCI   8
$$

 *****  OTHER AIRPORT OBSERVATIONS IN OUR AREA  *****

CITY           SKY/WX    TMP DP  RH WIND       PRES   REMARKS
WALHALLA       NOT AVBL
GRAFTON AIRPOR FAIR      18  16  93 N8        30.16S WCI   7
VALLEY CITY AR FAIR      19  19 100 NE13G22   30.10R WCI   7
CANDO          NOT AVBL
CAVALIER APRT    N/A     14  10  85 NW5       30.15F WCI   6
GWINNER        FAIR      23  18  80 N18G25    30.07R WCI   9
SHEYENNE NWR     N/A     22  15  74 NE10      29.95S WCI  11
ROLLA          CLOUDY    18  14  86 W8        30.10F WCI   7
 ***** THE ABOVE OBSERVATIONS ARE NON NWS ARE NOT QUALITY
       CONTROLLED AND MAY MIS-REPORT RAIN FOR SNOW...
$$

  *****  WEATHER ACROSS NORTHERN MINNESOTA  *****

CITY           SKY/WX    TMP DP  RH WIND       PRES   REMARKS
FLAG ISLAND    FAIR      12   5  73 N13       30.09S WCI  -3
WARROAD        FAIR      12   7  79 N8        30.10F WCI   1
ROSEAU         FAIR      10   5  79 N7        30.10F WCI   0
HALLOCK        FAIR      18  12  79 N8        30.13S WCI   7
THF RVR FALLS  FAIR      17  10  74 N13       30.10S WCI   4
BAUDETTE       FAIR      14   5  67 NW12      30.06F WCI   0
WASKISH        FAIR      16   9  73 N6        30.04F WCI   7
CROOKSTON      FAIR      19  14  79 N13       30.11F WCI   7
STEPHEN NDAWN    N/A     16  14  93 N7          N/A  WCI   6
GREENBUSH NDAW   N/A      7   5  92 NW3         N/A
$$
  *****  WEATHER ACROSS CENTRAL AND WEST MINNESOTA  *****

CITY           SKY/WX    TMP DP  RH WIND       PRES   REMARKS
FOSSTON        FAIR      16  10  79 N16       30.05S WCI   0
BEMIDJI        FAIR      17   9  72 N10G17    30.02R WCI   4
PARK RAPIDS    CLOUDY    21  12  68 N10       30.00R WCI  10
ELBOW LAKE     FAIR      24  20  83 NE10G17   30.00R WCI  13
WADENA         FAIR      21  16  79 N12       30.00R WCI   9
DETROIT LAKES  FAIR      21  14  73 N7G20     30.04R WCI  13
MOORHEAD       MOCLDY    21  14  73 N15       30.09R WCI   8
FERGUS FALLS   CLOUDY    23  18  80 N13G20    30.07R WCI  11
MORRIS MN      FAIR      27  21  80 N18       29.99R WCI  13
STAPLES        FAIR      21  16  79 N10       29.99R WCI  10
$$
  *****  WEATHER ELSEWHERE ACROSS MINNESOTA  *****

CITY           SKY/WX    TMP DP  RH WIND       PRES   REMARKS
DULUTH         FAIR      21  15  78 N8        29.94S WCI  11
INTRNTL FALLS  FAIR      15   6  67 NW7       30.03F WCI   5
ELY            FAIR      18   9  68 N3        29.95F
CLOQUET        FAIR      21  16  79 N6        29.95R WCI  14
WHEATON        CLOUDY    25  19  80 N14       30.04S WCI  13
BRAINERD       FAIR      23  15  71 N14       29.98R WCI  11
HIBBING        FAIR      18  12  77 N9        29.96F WCI   7
ALEXANDRIA     FAIR      25  19  78 N13       29.97R WCI  14
SAINT CLOUD    CLOUDY    27  20  75 NE14G21   29.96R WCI  16
MINNEAPOLIS    CLOUDY    30  22  72 N17       29.92R WCI  18
$$

  *****  WEATHER ACROSS SOUTH DAKOTA  *****

CITY           SKY/WX    TMP DP  RH WIND       PRES   REMARKS
SIOUX FALLS    LGT SNOW  28  27  96 NE21G32   29.84R VSB 3/4 WCI  15
BROOKINGS      CLOUDY    26  22  84 N25G32    29.86F WCI  11
WATERTOWN      CLOUDY    23  18  81 NE22G32   29.93R WCI   8
HURON          CLOUDY    27  22  81 N17       29.96R WCI  14
SISSETON         N/A     24  19  81 N17G26    30.03R WCI  11
ABERDEEN       CLOUDY    24  17  74 NE21G30   30.04R WCI   9
MITCHELL       LGT SNOW  28  25  88 N20       29.91F FOG     WCI  15
PIERRE         CLOUDY    29  21  72 NE15G22   29.99R WCI  18
MOBRIDGE       CLOUDY    29  20  69 MISG      30.02R
RAPID CITY     FLURRIES  26  21  81 NE12      29.98R WCI  16
$$

  *****  SOME WEATHER IN NEARBY STATES *****

CITY           SKY/WX    TMP DP  RH WIND       PRES   REMARKS
GLASGOW MT     CLOUDY    26  19  74 SE12      30.11S WCI  16
GREAT FALLS MT CLOUDY    24  21  88 N8        29.97F WCI  15
CHEYENNE WY    LGT SNOW  15  11  83 N12       29.80R FOG     WCI   2
SCOTTSBLUFF NE LGT SNOW  23  19  85 N12       29.89S FOG     WCI  12
OMAHA NE       LGTSLEET  34  30  85 N17       29.62R WCI  23
DES MOINES IA  DRIZZLE   42  40  92 NE16G23   29.57F FOG
DAVENPORT IA   TSTM      37  35  92 E20G30    29.62F
CHICAGO IL     CLOUDY    39  36  89 NE16      29.72F
EAU CLAIRE WI  CLOUDY    33  27  78 NE10      29.87R WCI  25
LA CROSSE WI   LGT RAIN  40  29  64 NE13G18   29.80R
$$

  *****  SOME NATIONAL WEATHER *****

CITY           SKY/WX    TMP DP  RH WIND       PRES   REMARKS
LA GUARDIA NY  FAIR      57  48  72 S6        29.89R
RALEIGH NC     FAIR      61  50  67 S3        29.93S
ATLANTA GA     FAIR      64  52  64 SE5       29.88R
NEW ORLEANS LA FAIR      66  62  87 SE8       29.80F
OKLAHOMA CITY  FAIR      70  33  25 W16       29.44R
ALBUQUERQUE NM FAIR      41   8  25 NW14      29.79R
SALT LAKE CITY CLOUDY    31  22  69 W8        29.89R WCI  23
LOS ANGELES CA FAIR      53  19  26 N8        30.07R
BOISE ID       CLOUDY    32  22  66 NW18      29.96S WCI  20
SEATTLE WA     FAIR      36  32  85 SE6       30.19F
$$

*** WEATHER ACROSS MANITOBA...SASKATCHEWAN AND ONTARIO ***
                ***ONTARIO***

CITY           SKY/WX    TMP DP  RH WIND       PRES   REMARKS
GERALDTON      CLEAR      7  -2  66 N6        30.02R WCI  -3
THUNDER BAY    PTCLDY    21   9  58 N6        30.03R WCI  14
SIOUX LOOKOUT  CLEAR      9   0  66 N3        30.04S
TORONTO        MOCLDY    41  37  87 NE9       29.88R
BIG TROUT LK   CLOUDY     1  -4  78 N7        30.13R WCI -11
PICKLE LAKE    NOT AVBL
DRYDEN         CLEAR     10   3  72 N5        30.04S WCI   2
KENORA         CLEAR     12   3  67 N7        30.06S WCI   2
$$
                *** MANITOBA***

CITY           SKY/WX    TMP DP  RH WIND       PRES   REMARKS
BRANDON        CLOUDY    23  18  80 W5        30.11S WCI  17
DAUPHIN        FLURRIES  18  14  86 NE8       30.16S WCI   7
ISLAND LAKE    CRYSTALS  -6  -9  84 VRB2      30.21S
PILOT MOUND      N/A     18  12  79 W2          N/A
THE PAS        CLEAR      3  -4  72 E5        30.20S WCI  -6
THOMPSON       MOCLDY   -11 -17  77 NE5       30.25S WCI -23
WINNIPEG       CLEAR     14   7  73 NE6       30.16S WCI   5
LYNN LAKE      PTCLDY   -15 -17  91 CALM      30.20S
CHURCHILL      MOCLDY    -9 -13  84 N9        30.37F WCI -27
GILLAM         CLEAR     -9 -17  70 NE5       30.31R WCI -21
$$
                ***SASKATCHEWAN***

CITY           SKY/WX    TMP DP  RH WIND       PRES   REMARKS
ESTEVAN        MOCLDY    25  18  74 SW8       30.12S WCI  16
KINDERSLEY     FLURRIES  25  23  93 CALM      30.06S
LLOYDMINSTER   CLOUDY    16  12  86 S9        30.05F WCI   4
PRINCE ALBERT  PTCLDY    12   5  73 NE3       30.12S
REGINA         CLOUDY    25  19  80 W2        30.12S
YORKTON        CLEAR     14  10  85 NW7       30.13R WCI   4
N. BATTLEFORD  CLEAR     14  14 100 SE3       30.12R
LA RONGE       FLURRIES   7   1  78 VRB2      30.15S
SASKATOON      MOCLDY    19  16  86 NE5       30.12S WCI  13
SWIFT CURRENT  CLOUDY    23  18  80 S7        30.06F WCI  15
$$
NOTE: THESE ARE AUTOMATED STATIONS WITH LIMITED QUALITY CONTROL
      "FAIR" INDICATES FEW OR NO CLOUDS BELOW 12,000 FEET WITH NO
      SIGNIFICANT WEATHER AND/OR OBSTRUCTIONS TO VISIBILITY.
      SKY/WX - SKY CONDITION AND SIGNIFICANT WEATHER.
      TMP - AIR TEMPERATURE.    DP   - DEWPOINT TEMPERATURE.
      RH  - RELATIVE HUMIDITY.  PRES - PRESSURE.
      HX  - HEAT INDEX.         WCI  - WIND CHILL INDEX.
$



USA.gov is the U.S. government's official web portal to all federal, state and local government web resources and services.